This is the latest recevied weather packets stored in our database for station/object GJ7DNI-13. If no packets are shown the sender has not sent any weather packets the latest 10 day(s).
| Time | Temp. | Humidity | Pressure | Rain* | Wind** | Luminosity | Snow |
|---|---|---|---|---|---|---|---|
| 1777886999 | 16.11° C | 69% | 1012.3 hPa | 0 mm | - | 652 W/m² | - |
| 1777886699 | 16.11° C | 70% | 1012.4 hPa | 0 mm | - | 483 W/m² | - |
| 1777886399 | 15.56° C | 70% | 1012.4 hPa | 0 mm | - | 294 W/m² | - |
| 1777886099 | 16.11° C | 69% | 1012.4 hPa | 0 mm | - | 548 W/m² | - |
| 1777885799 | 16.11° C | 70% | 1012.4 hPa | 0 mm | - | 413 W/m² | - |
| 1777885499 | 16.11° C | 69% | 1012.3 hPa | 0 mm | - | 710 W/m² | - |
| 1777885199 | 16.11° C | 71% | 1012.3 hPa | 0 mm | - | 656 W/m² | - |
| 1777884899 | 15.56° C | 75% | 1012.4 hPa | 0 mm | - | 605 W/m² | - |
| 1777884599 | 14.44° C | 78% | 1012.4 hPa | 0 mm | - | 573 W/m² | - |
| 1777884299 | 13.89° C | 79% | 1012.4 hPa | 0 mm | - | 438 W/m² | - |
| 1777883999 | 13.89° C | 79% | 1012.4 hPa | 0 mm | - | 487 W/m² | - |
| 1777883699 | 13.89° C | 81% | 1012.3 hPa | 0 mm | - | 271 W/m² | - |
| 1777883399 | 13.33° C | 80% | 1012.3 hPa | 0 mm | - | 234 W/m² | - |
| 1777883099 | 13.33° C | 80% | 1012.2 hPa | 0 mm | - | 109 W/m² | - |
| 1777882799 | 13.33° C | 80% | 1012.2 hPa | 0 mm | - | 146 W/m² | - |
| 1777882499 | 13.33° C | 80% | 1012.2 hPa | 0 mm | - | 174 W/m² | - |
| 1777882199 | 13.89° C | 80% | 1012.2 hPa | 0 mm | - | 135 W/m² | - |
| 1777881899 | 13.33° C | 80% | 1012.2 hPa | 0 mm | - | 120 W/m² | - |
| 1777881599 | 13.33° C | 81% | 1012.2 hPa | 0 mm | - | 158 W/m² | - |
| 1777881299 | 13.33° C | 81% | 1012.1 hPa | 0 mm | - | 237 W/m² | - |
| 1777880999 | 13.33° C | 81% | 1012.1 hPa | 0 mm | - | 223 W/m² | - |
| 1777880699 | 13.33° C | 81% | 1012.1 hPa | 0 mm | - | 290 W/m² | - |
| 1777880399 | 13.33° C | 82% | 1012.1 hPa | 0 mm | - | 165 W/m² | - |
| 1777880099 | 13.33° C | 82% | 1012 hPa | 0 mm | - | 172 W/m² | - |
| 1777879799 | 13.33° C | 83% | 1012 hPa | 0 mm | - | 171 W/m² | - |
* Rain latest hour (hover to see other rain measurements)
** Current wind speed in m/s (hover to see current wind gust speed)